Regional Weather Roundup
Issued by NWS

Home | Current Version | Previous Version | Graphics & Text | Print | Product List | Glossary On
Versions: 1 2 3 4 5 6 7 8 9 10 11 12 13 14 15 16 17 18 19 20 21 22 23 24 25 26 27 28 29 30 31 32 33 34 35 36 37 38 39 40 41 42 43 44 45 46 47 48 49 50
000
ASUS44 KMEG 250110
RWRTN
TENNESSEE HOURLY STATE WEATHER ROUNDUP
NATIONAL WEATHER SERVICE MEMPHIS TN
800 PM CDT FRI OCT 24 2014

TNZ002-004-019-021-049-052-054-088>092-250200-
WEST TENNESSEE

CITY           SKY/WX    TMP DP  RH WIND       PRES   REMARKS
MEMPHIS INTL   PTCLDY    62  56  80 SW3       30.09R
NWS MEMPHIS      N/A     59 N/A N/A MISG        N/A
JACKSON        CLEAR     56  53  90 CALM      30.08S
DYERSBURG      PTCLDY    55  45  67 CALM      30.09S
UNION CITY     CLEAR     54  50  87 CALM      30.07R
PARIS          CLEAR     50  48  93 CALM      30.09R
HUNTINGDON     CLEAR     52  49  89 CALM      30.09R
LEXINGTON      CLEAR     54  54 100 CALM      30.08R
SAVANNAH       CLEAR     54  52  94 CALM      30.09S
$$

TNZ008-025-027-028-033-062-065-066-250200-
NORTH MIDDLE TENNESSEE

CITY           SKY/WX    TMP DP  RH WIND       PRES   REMARKS
NASHVILLE      PTCLDY    60  45  57 CALM      30.08S
CLARKSVILLE    CLEAR     57  51  80 CALM      30.08R
SMYRNA         PTCLDY    54  48  80 CALM      30.09S
COOKEVILLE     CLEAR     48  45  87 CALM      30.08S
CROSSVILLE     CLEAR     51  40  65 NW3       30.09S
$$

TNZ061-075-076-078-094-096-097-250200-
SOUTH MIDDLE TENNESSEE

CITY           SKY/WX    TMP DP  RH WIND       PRES   REMARKS
FAYETTEVILLE   CLEAR     57  39  51 N7        30.08S
TULLAHOMA      CLEAR     48  43  81 CALM      30.10S
WINCHESTER     CLEAR     48  43  81 CALM      30.09S
MCMINNVILLE    CLEAR     50  45  81 CALM      30.09R
COLUMBIA       CLEAR     54  54 100 CALM      30.07S
SHELBYVILLE    CLEAR     52  48  87 CALM      30.10R
$$

TNZ017-018-042-046-047-250200-
NORTHEAST TENNESSEE

CITY           SKY/WX    TMP DP  RH WIND       PRES   REMARKS
TRI CITIES     CLEAR     47  42  83 CALM      30.07S
ELIZABETHTON   CLEAR     43  39  87 CALM      30.07F
$$

TNZ012-013-036-069-073-074-250200-
CENTRAL EAST TENNESSEE

CITY           SKY/WX    TMP DP  RH WIND       PRES   REMARKS
KNOXVILLE      PTCLDY    55  44  66 CALM      30.05S
OAK RIDGE      CLEAR     52  48  86 CALM      30.07S
GATLINBURG     CLEAR     48  43  81 CALM      30.06F
MORRISTOWN     CLEAR     54  45  71 CALM      30.08R
$$

TNZ083-085-099-250200-
SOUTHEAST TENNESSEE

CITY           SKY/WX    TMP DP  RH WIND       PRES   REMARKS
CHATTANOOGA    PTCLDY    54  46  74 NW5       30.06R
$$

SKY/WX REPORTED AS FAIR MEANS FEW OR NO CLOUDS BELOW
12 THOUSAND FEET.




USA.gov is the U.S. government's official web portal to all federal, state and local government web resources and services.